TimeCDT,TemperatureF,Dew PointF,Humidity,Sea Level PressureIn,VisibilityMPH,Wind Direction,Wind SpeedMPH,Gust SpeedMPH,PrecipitationIn,Events,Conditions,WindDirDegrees,DateUTC
12:15 AM,59.5,59.0,98,30.06,1.2,Calm,Calm,-,N/A,,Mist,0,2013-10-10 05:15:00
12:35 AM,60.1,59.4,97,30.06,0.8,Calm,Calm,-,N/A,,Mist,0,2013-10-10 05:35:00
12:55 AM,59.9,59.2,97,30.06,0.8,Calm,Calm,-,N/A,,Mist,0,2013-10-10 05:55:00
1:15 AM,59.7,59.0,97,30.06,3.0,Calm,Calm,-,N/A,,Clear,0,2013-10-10 06:15:00
1:35 AM,59.4,59.0,99,30.06,1.8,Calm,Calm,-,N/A,,Mist,0,2013-10-10 06:35:00
1:55 AM,59.7,59.2,98,30.06,1.8,Calm,Calm,-,N/A,,Mist,0,2013-10-10 06:55:00
2:15 AM,59.2,58.6,98,30.07,2.0,Calm,Calm,-,N/A,,Clear,0,2013-10-10 07:15:00
2:35 AM,58.8,58.3,98,30.07,1.5,Calm,Calm,-,N/A,,Mist,0,2013-10-10 07:35:00
2:55 AM,59.5,59.0,98,30.07,2.5,Calm,Calm,-,N/A,,Clear,0,2013-10-10 07:55:00
3:15 AM,58.8,58.1,97,30.07,1.5,Calm,Calm,-,N/A,,Mist,0,2013-10-10 08:15:00
3:35 AM,59.5,59.0,98,30.07,4.0,Calm,Calm,-,N/A,,Clear,0,2013-10-10 08:35:00
3:55 AM,59.5,59.0,98,30.07,4.0,Calm,Calm,-,N/A,,Clear,0,2013-10-10 08:55:00
4:15 AM,59.5,59.0,98,30.07,1.0,Calm,Calm,-,N/A,,Mist,0,2013-10-10 09:15:00
4:35 AM,58.8,58.3,98,30.07,1.0,Calm,Calm,-,N/A,,Mist,0,2013-10-10 09:35:00
4:55 AM,58.6,58.1,98,30.06,1.5,Calm,Calm,-,N/A,,Mist,0,2013-10-10 09:55:00
5:15 AM,59.0,58.5,98,30.06,1.0,Calm,Calm,-,N/A,,Mist,0,2013-10-10 10:15:00
5:35 AM,59.4,59.0,99,30.07,1.5,Calm,Calm,-,N/A,,Mist,0,2013-10-10 10:35:00
5:55 AM,59.2,58.6,98,30.06,1.8,Calm,Calm,-,N/A,,Mist,0,2013-10-10 10:55:00
6:15 AM,59.0,58.5,98,30.06,1.2,Calm,Calm,-,N/A,,Mist,0,2013-10-10 11:15:00
6:35 AM,59.0,58.3,97,30.06,1.2,Calm,Calm,-,N/A,,Mist,0,2013-10-10 11:35:00
6:55 AM,58.5,58.1,99,30.06,1.2,Calm,Calm,-,N/A,,Mist,0,2013-10-10 11:55:00
7:15 AM,58.3,57.9,99,30.06,0.8,Calm,Calm,-,N/A,,Mist,0,2013-10-10 12:15:00
7:35 AM,59.0,58.5,98,30.06,1.0,Calm,Calm,-,N/A,,Mist,0,2013-10-10 12:35:00
7:55 AM,59.5,59.0,98,30.07,1.8,Calm,Calm,-,N/A,,Mist,0,2013-10-10 12:55:00
8:15 AM,60.8,60.1,97,30.08,3.0,Calm,Calm,-,N/A,,Clear,0,2013-10-10 13:15:00
8:35 AM,62.1,61.5,98,30.09,4.0,Calm,Calm,-,N/A,,Scattered Clouds,0,2013-10-10 13:35:00
8:55 AM,64.0,63.5,98,30.09,5.0,Calm,Calm,-,N/A,,Clear,0,2013-10-10 13:55:00
9:15 AM,66.9,66.2,98,30.09,10.0,NNE,3.5,-,N/A,,Clear,30,2013-10-10 14:15:00
9:35 AM,68.7,66.7,93,30.09,10.0,NNE,4.6,-,N/A,,Clear,20,2013-10-10 14:35:00
9:55 AM,72.0,66.7,84,30.10,10.0,NE,4.6,-,N/A,,Clear,40,2013-10-10 14:55:00
10:15 AM,74.1,65.1,73,30.10,10.0,ENE,5.8,-,N/A,,Clear,70,2013-10-10 15:15:00
10:35 AM,75.6,64.6,69,30.11,10.0,NE,4.6,-,N/A,,Clear,40,2013-10-10 15:35:00
10:55 AM,77.0,64.2,65,30.11,10.0,ENE,5.8,-,N/A,,Clear,70,2013-10-10 15:55:00
11:15 AM,77.4,63.3,62,30.10,10.0,ENE,3.5,-,N/A,,Clear,60,2013-10-10 16:15:00
11:35 AM,78.3,63.1,60,30.10,10.0,Calm,Calm,-,N/A,,Clear,0,2013-10-10 16:35:00
11:55 AM,78.8,62.6,57,30.09,10.0,Calm,Calm,-,N/A,,Clear,0,2013-10-10 16:55:00
12:15 PM,80.2,63.0,55,30.09,10.0,South,5.8,-,N/A,,Scattered Clouds,170,2013-10-10 17:15:00
12:35 PM,79.9,62.1,54,30.08,10.0,South,3.5,-,N/A,,Scattered Clouds,170,2013-10-10 17:35:00
12:55 PM,80.2,61.3,52,30.07,10.0,Calm,Calm,-,N/A,,Scattered Clouds,0,2013-10-10 17:55:00
1:15 PM,80.6,61.5,52,30.06,10.0,Calm,Calm,-,N/A,,Clear,0,2013-10-10 18:15:00
1:35 PM,81.9,62.8,52,30.05,10.0,East,4.6,-,N/A,,Clear,100,2013-10-10 18:35:00
1:55 PM,82.0,61.7,50,30.04,10.0,Calm,Calm,-,N/A,,Scattered Clouds,0,2013-10-10 18:55:00
2:15 PM,81.1,62.4,53,30.03,10.0,North,3.5,-,N/A,,Mostly Cloudy,10,2013-10-10 19:15:00
2:35 PM,80.6,62.1,53,30.02,10.0,North,3.5,-,N/A,,Mostly Cloudy,10,2013-10-10 19:35:00
2:55 PM,83.3,61.5,48,30.01,10.0,SE,3.5,-,N/A,,Scattered Clouds,130,2013-10-10 19:55:00
3:15 PM,83.1,61.9,49,30.01,10.0,SSE,5.8,-,N/A,,Clear,150,2013-10-10 20:15:00
3:35 PM,83.5,62.2,49,30.00,10.0,ESE,4.6,-,N/A,,Clear,110,2013-10-10 20:35:00
3:55 PM,82.0,62.8,52,30.00,10.0,SE,3.5,-,N/A,,Clear,130,2013-10-10 20:55:00
4:15 PM,82.6,62.4,50,29.99,10.0,SE,6.9,-,N/A,,Clear,140,2013-10-10 21:15:00
4:35 PM,82.8,61.5,49,29.99,10.0,SE,6.9,-,N/A,,Scattered Clouds,140,2013-10-10 21:35:00
4:55 PM,82.0,61.9,50,29.99,10.0,East,9.2,-,N/A,,Scattered Clouds,100,2013-10-10 21:55:00
5:15 PM,80.1,60.8,52,29.99,10.0,ESE,8.1,-,N/A,,Clear,110,2013-10-10 22:15:00
5:35 PM,80.6,62.1,53,29.99,10.0,East,8.1,-,N/A,,Clear,100,2013-10-10 22:35:00
5:55 PM,80.4,62.6,54,29.99,10.0,ESE,5.8,-,N/A,,Scattered Clouds,110,2013-10-10 22:55:00
6:15 PM,78.8,64.9,62,29.99,10.0,SE,9.2,-,N/A,,Scattered Clouds,140,2013-10-10 23:15:00
6:35 PM,77.0,64.9,66,29.98,10.0,SE,5.8,-,N/A,,Scattered Clouds,140,2013-10-10 23:35:00
6:55 PM,75.2,65.5,72,29.99,10.0,SE,5.8,-,N/A,,Clear,140,2013-10-10 23:55:00
7:15 PM,74.3,65.7,74,29.99,10.0,SE,5.8,-,N/A,,Clear,140,2013-10-11 00:15:00
7:35 PM,72.7,65.8,79,29.98,10.0,SE,3.5,-,N/A,,Clear,130,2013-10-11 00:35:00
7:55 PM,72.5,66.2,81,29.99,10.0,SE,3.5,-,N/A,,Clear,140,2013-10-11 00:55:00
8:15 PM,72.0,66.6,83,30.00,10.0,Calm,Calm,-,N/A,,Clear,0,2013-10-11 01:15:00
8:35 PM,71.6,67.1,86,30.00,10.0,Calm,Calm,-,N/A,,Clear,0,2013-10-11 01:35:00
8:55 PM,69.6,66.6,90,30.00,10.0,Calm,Calm,-,N/A,,Clear,0,2013-10-11 01:55:00
9:15 PM,70.7,67.5,89,30.01,10.0,Calm,Calm,-,N/A,,Clear,0,2013-10-11 02:15:00
9:35 PM,69.8,67.1,91,30.00,10.0,Calm,Calm,-,N/A,,Clear,0,2013-10-11 02:35:00
9:55 PM,70.3,67.1,89,30.01,10.0,Calm,Calm,-,N/A,,Clear,0,2013-10-11 02:55:00
10:15 PM,68.5,66.2,92,30.01,10.0,Calm,Calm,-,N/A,,Clear,0,2013-10-11 03:15:00
10:35 PM,66.4,64.9,95,30.01,7.0,Calm,Calm,-,N/A,,Clear,0,2013-10-11 03:35:00
10:55 PM,66.0,64.9,96,30.01,3.0,Calm,Calm,-,N/A,,Clear,0,2013-10-11 03:55:00
11:15 PM,66.2,65.1,96,30.01,4.0,Calm,Calm,-,N/A,,Clear,0,2013-10-11 04:15:00
11:35 PM,66.4,65.5,97,30.00,4.0,Calm,Calm,-,N/A,,Clear,0,2013-10-11 04:35:00
11:55 PM,66.9,66.0,97,30.00,10.0,Calm,Calm,-,N/A,,Clear,0,2013-10-11 04:55:00